COSMOS 1275 DEB

Satellite information

Favourite Embed

Satellite Type and Status

DEBRISIN ORBIT

Key statistics

Satellite COSMOS 1275 DEB at a glance.

Uptime

16166

Days in orbit

Revolutions

≈ 14.1

Per day

Orbit

LEO

Low Earth Orbit

Inclination

82.7

Latest

Satellite identification and parameters

Extended collection of information and parameters for COSMOS 1275 DEB.

Object identification

Identified? True

Debris? True

Object name: COSMOS 1275 DEB

International designator: 1981-053QB

Object number (NORAD): 42115

Object ID (CCSDS): 42115

Country: COMMONWEALTH OF INDEPENDENT STATES (CIS)

Current information (Y/N): Y

RCS size: SMALL

Orbital parameters

Period: 102.19 minutes

Inclination: 82.6571 deg

SMA: 7240.461 km

Apoapsis: 907.862 km

Periapsis: 816.789 km

RAAN: 109.9529 deg

Eccentricy: 0.00628919

Argument of periapsis: 31.4488 deg

Mean anomaly: 329.0421 deg

Mean motion: 14.09137764 rev/day

Mean motion (dot): 0.00002259 rev/day2

B* drag term: 0.0012696702 1/REarth

Two-line elements (TLE)

Creation date: Sept. 7, 2025, 3:09 a.m.

Reference frame: TEME

Reference center: EARTH

Epoch: Sept. 6, 2025, 8:24 a.m. UTC

TLE line 0: 0 COSMOS 1275 DEB

TLE line 1: 1 42115U 81053QB 25249.35000939 .00002259 00000-0 12697-2 0 9996

TLE line 2: 2 42115 82.6571 109.9529 0062892 31.4488 329.0421 14.09137764602656

Live tracking on map

Real-time ground track for satellite COSMOS 1275 DEB.

In-orbit conjunctions

A list of the most updated potential collisions computed for object COSMOS 1275 DEB.

Target Orbit TCA Probability of collision Miss distance Type
SL-16 R/B LEO 2025-08-31 09:45:12 0.002164587 33.0 (m) ROCKET BODY
FENGYUN 1C DEB SSO 2025-08-18 03:31:50 0.001011803 36.0 (m) DEBRIS
CZ-4C DEB SSO 2024-11-15 15:40:14 0.0001758745 150.0 (m) DEBRIS
DMSP 5D-2 F8 (USA 26) SSO 2024-06-10 03:19:40 0.0001061915 650.0 (m) PAYLOAD

Associated space launch

Navigation satellite providing location information for the Tsiklon-B navigation system

COSMOS 1275 DEB was lifted into orbit during the mission ‘Kosmos-3M | Parus 27’, on board a Kosmos-3M space rocket.

The launch took place on June 4, 1981, 3:41 p.m. from 132/2.

For more information about the launch, click the button.

Launch to space Kosmos-3M | Parus 27
Kosmos-3M | Parus 27

Agency: N/A

Status: Launch Successful

Launch date: June 4, 1981, 3:41 p.m. UTC

Rocket: Kosmos-3M

Launch pad: 132/2

Location: Plesetsk Cosmodrome, Russian Federation

...

Latest news about this satellite

There are no fresh news available about this satellite. Check back as we update our databases every day.


Newsletter sign-up

Weekly statistics, charts and insights to help you stay on top of the space industry.